Regional Weather Roundup
Issued by NWS

Home | Current Version | Previous Version | Text Only | Print | Product List | Glossary Off
Versions: 1 2 3 4 5 6 7 8 9 10 11 12 13 14 15 16 17 18 19 20 21 22 23 24 25 26 27 28 29 30 31 32 33 34 35 36 37 38 39 40 41 42 43 44 45 46 47 48 49 50

000
ASUS43 KMKX 301911
RWRWI

WISCONSIN REGIONAL WEATHER ROUNDUP
NATIONAL WEATHER SERVICE MILWAUKEE/SULLIVAN WI
200 PM CDT SAT JUL 30 2016

NOTE: "FAIR" INDICATES FEW OR NO CLOUDS BELOW 12,000 FEET WITH NO
SIGNIFICANT WEATHER AND/OR OBSTRUCTIONS TO VISIBILITY.

WIZ001-002-006>008-014>016-023>028-302000-
NORTHWEST WISCONSIN

CITY           SKY/WX    TMP DP  RH WIND       PRES   REMARKS
SUPERIOR ARPT  CLOUDY    68  63  82 NE7       30.05F
ASHLAND        PTSUNNY   80  60  50 VRB3      30.05F HX  81
HAYWARD        MOSUNNY   78  55  44 S7        30.06F
SIREN          MOSUNNY   79  57  47 S6        30.05  HX  80
CUMBERLAND     SUNNY     75  55  50 SE3       30.05F
RICE LAKE      SUNNY     78  57  49 E6        30.06F
CHETEK         PTSUNNY   77  59  53 S3        30.05F
LADYSMITH      SUNNY     79  54  42 E5        30.07F
EAU CLAIRE     PTSUNNY   78  60  53 SE7       30.02F
MENOMONIE      MOSUNNY   83  58  42 NE6       30.04F HX  83
NEW RICHMOND   MOSUNNY   79  59  50 E8        30.03F HX  80
OSCEOLA        MOSUNNY   77  62  59 SE5       30.05F
$$

WIZ003>005-009-010-017-018-302000-
NORTH CENTRAL WISCONSIN

CITY           SKY/WX    TMP DP  RH WIND       PRES   REMARKS
MANITOWISH WTR MOSUNNY   76  56  49 SE6       30.08F
ARBOR VITAE    CLOUDY    77  55  45 E8        30.08F
WOODRUFF       CLOUDY    77  55  45 E8        30.08F
RHINELANDER    SUNNY     75  53  46 SE10      30.09F
EAGLE RIVER    MOSUNNY   76  49  37 SE5       30.08F
LAND O LAKES   MOSUNNY   75  51  43 SE6       30.10F
PHILLIPS       PTSUNNY   73  56  54 CALM      30.07F
TOMAHAWK       CLOUDY    74  58  56 CALM      30.08S
MEDFORD        SUNNY     73  59  62 CALM      30.07F
MERRILL        CLOUDY    77  59  53 SE7       30.07F
$$

WIZ029-030-035-036-043>047-302000-
CENTRAL WISCONSIN

CITY           SKY/WX    TMP DP  RH WIND       PRES   REMARKS
WAUSAU         CLOUDY    74  57  55 E8        30.05F
MOSINEE        MOSUNNY   73  59  60 SE7       30.07F
MARSHFIELD     MOSUNNY   79  60  52 SE10G18   30.05F HX  80
STEVENS POINT  MOSUNNY   74  57  56 E10G16    30.06S
WAUPACA        MOSUNNY   79  58  49 E5        30.06S HX  80
WAUTOMA        MOSUNNY   77  61  57 VRB5      30.05F
WISC RAPIDS    CLOUDY    77  58  51 E9        30.06F
CAMP DOUGLAS   PTSUNNY   77  64  65 SE7       30.04F
$$

WIZ011>013-019>022-031-037>040-048>050-302000-
NORTHEAST WISCONSIN

CITY           SKY/WX    TMP DP  RH WIND       PRES   REMARKS
ANTIGO         MOSUNNY   72  56  58 E7        30.09S
SHAWANO        SUNNY     79  56  45 SE8       30.07S HX  80
OCONTO         SUNNY     75  54  49 E7G16     30.06S
STURGEON BAY   SUNNY     75  52  44 NE10G17   30.07F
GREEN BAY      SUNNY     76  58  53 NE9       30.05F
MANITOWOC      SUNNY     74  56  53 NE9       30.05F
APPLETON       PTSUNNY   75  50  41 NE14      30.04F
CLINTONVILLE   MOSUNNY   75  54  46 NE7       30.06S
OSHKOSH        SUNNY     76  57  51 E10       30.04F
$$

WIZ032>034-041-042-053>061-302000-
SOUTHWEST WISCONSIN

CITY           SKY/WX    TMP DP  RH WIND       PRES   REMARKS
LA CROSSE      CLOUDY    78  61  55 SE5       30.02F HX  80
SPARTA         CLOUDY    79  61  54 E7        30.04F HX  80
VIROQUA        CLOUDY    76  62  60 SE5       30.05F
BOSCOBEL       PTSUNNY   81  63  54 E7        30.02F HX  82
PRAIRIE DU CHI PTSUNNY   76  64  66 E3        30.01F
PLATTEVILLE    PTSUNNY   78  62  57 E7        30.02F HX  80
$$

WIZ056-057-062-063-064-067-068-302000-
SOUTH CENTRAL WISCONSIN

CITY           SKY/WX    TMP DP  RH WIND       PRES   REMARKS
REEDSBURG      CLOUDY    77  60  54 SE8       30.04S
BARABOO/DELLS  CLOUDY    75  60  58 E5        30.05S
LONE ROCK      MOSUNNY   78  61  55 NE13      30.03F HX  80
MINERAL POINT  MOSUNNY   79  61  53 E8        30.03F HX  80
MADISON        CLOUDY    78  62  57 VRB6      30.02F HX  80
MIDDLETON      CLOUDY    78  62  58 NE7       30.04F HX  80
WATERTOWN      SUNNY     78  60  53 NE8       30.03R
MONROE         MOSUNNY   75  63  64 NE8       30.02F
JANESVILLE     NOT AVBL
$$

WIZ051-052-058>065-066-070>072-302000-
SOUTHEAST WISCONSIN

CITY           SKY/WX    TMP DP  RH WIND       PRES   REMARKS
MILWAUKEE      PTSUNNY   75  63  66 NE14      30.03S
WAUKESHA       MOSUNNY   75  55  50 E12       30.04S
MILWAUKEE/TIMM MOSUNNY   73  57  56 NE10      30.04F
RACINE         MOSUNNY   74  62  66 NE12      30.04S
BURLINGTON     SUNNY     77  58  52 NE7       30.02S
KENOSHA        PTSUNNY   76  63  64 NE9       30.02S
FOND DU LAC    MOSUNNY   78  56  46 NE8       30.04F
SHEBOYGAN      SUNNY     73  59  61 NE15      30.04F
WEST BEND      SUNNY     75  54  46 NE7       30.04R
JUNEAU         MOSUNNY   76  60  57 NE7       30.05S
$$

LSZ147-162-302000-
LAKE SUPERIOR

STATION/POSITION TIME  TEMP    WIND        PRES    WAVE
                       AIR SEA DIR/SP/G            HT/PER
                 (UTC) (F)     (DEG/KT/KT) (MB)    (FT/S)
W MID LAKE BUOY  1850   64 65   90/  4/  6 1017.8F   0
DEVILS ISLAND    1800   66      60/  6/  7 1018.2F
PORT WING        1800   66      30/ 10/ 11 1017.9F
SAXON HARBOR     1840   70      40/ 11/ 12 1017.3F
$$

LMZ867-665-643>646-302000-
LAKE MICHIGAN

STATION/POSITION TIME  TEMP    WIND        PRES    WAVE
                       AIR SEA DIR/SP/G            HT/PER
                 (UTC) (F)     (DEG/KT/KT) (MB)    (FT/S)
CHAMBERS ISLAND  1800   72      20/ 10/ 12 1018.6S
S GREEN BAY BUOY 1800   72 71   60/ 14/ 16 1017.7F
N MID LAKE BUOY  1850   70 70   20/ 10/ 12 1017.7F   1/ 3
NORTHPORT PIER   1800   72      70/  7/  8 1018.6
SISTER BAY       1821   80     110/  8/ 11   N/A
ALGOMA LAKESHORE 1813           70/ 16/ 20   N/A
KEWAUNEE LAKESHO 1800   71      40/  9/ 12 1017.7S
SHEBOYGAN LAKESH 1900   65      20/  8/  8 1017.5F
PORT WASHINGTON  1840   72      40/  7/ 11 1017.6S
ATWATER BUOY     1900   67 65   20/  8/ 10 1018.6F
MILWAUKEE LAKESH 1810   68      30/  9/ 10   N/A
S MID LAKE BUOY  1850   69 73   60/  4/  6 1015.8F   1/ 5
KENOSHA   LAKESH 1800   69      20/ 12/ 14 1016.3S
$$

TC  - TEMPERATURE IN CELSIUS
VSB - VISIBILITY IN STATUTE MILES
WCI - WIND CHILL INDEX
HX  - HEAT INDEX




USA.gov is the U.S. government's official web portal to all federal, state and local government web resources and services.